sat.trackr.live / text

‹ back to catalog

STARLINK-30359

NORAD 57779 · 2023-134J

PAYLOAD ACTIVE UNKNOWN

§ Identity

Operator
Country
US
Launch date
2023-09-04
Launch site
AFETR
Launch vehicle
Mass (kg)
RCS (m²)

Purposes: comms

External: N2YO · Heavens-Above · Gunter

§ Orbital elements

Epoch: 2026-09-20T10:38:30.993792Z

Period
94.27 min
Inclination
43.0039°
Eccentricity
0.0000947
Mean motion
15.27574296 rev/d
Perigee alt
482.4 km
Apogee alt
483.7 km
Semi-major
6,861.2 km
B*
1.5932e-5
RAAN
163.3613°
Arg perigee
277.4872°
Mean anomaly
82.5872°
Rev number
16,942

§ Raw data

STARLINK-303591 57779U 23134J   26263.44341428  .00000176  00000+0  15932-4 0  99942 57779  43.0039 163.3613 0000947 277.4872  82.5872 15.27574296169428

JSON: /api/v1/satellites/57779 · /tle

For live sub-satellite position, see the globe view (requires WebGL).

§ Visibility from observer

Set your observer location to see the next 7 days of passes ≥ 10°. The values pass through the URL so the page stays shareable.

No JS? Fill the form by hand. The geolocation button needs JavaScript.